Latest Coastal Weather Observations for Yamba

IDN60701

Issued at 4:05 am EST Wednesday 1 October 2014 (issued every 10 minutes, with the page automatically refreshed every 10 minutes)

About coastal observations | Map of coastal stations | Coastal observations for NSW | Marine services | Other Formats
Station Details ID: 058012 Name: YAMBA PILOT STATION Lat: -29.43 Lon: 153.36 Height: 27.4 m
Data from the previous 72 hours. | See also: Recent months at Yamba
Date/Time
EST
Temp

°C
Wind Pressure Rain
since 9am
mm
Weather Cloud Vis
km
Sea
Height
m
Swell
Dir
 
Speed
knots
Gust
knots
hPa Trend Height
m
Period
s
Dir
01/04:00am 17.5 NNW 6 9 1012.5 - 0.0 - - - - - - -
01/03:30am 17.4 NNW 6 9 1012.5 - 0.0 - - - - - - -
01/03:00am 17.3 N 7 9 1012.5 - 0.0 - - - - - - -
01/02:30am 17.5 N 6 9 1013.0 - 0.0 - - - - - - -
01/02:00am 17.7 N 6 9 1013.3 - 0.0 - - - - - - -
01/01:30am 18.0 N 6 9 1013.7 - 0.0 - - - - - - -
01/01:00am 18.1 N 6 9 1013.9 - 0.0 - - - - - - -
01/12:30am 18.4 N 6 11 1014.4 - 0.0 - - - - - - -
01/12:00am 18.4 N 6 9 1014.7 - 0.0 - - - - - - -
 
Date/Time
EST
Temp

°C
Wind Pressure Rain
since 9am
mm
Weather Cloud Vis
km
Sea
Height
m
Swell
Dir
 
Speed
knots
Gust
knots
hPa Trend Height
m
Period
s
Dir
30/11:30pm 18.7 N 5 8 1015.1 - 0.0 - - - - - - -
30/11:00pm 18.8 N 6 9 1015.4 - 0.0 - - - - - - -
30/10:30pm 19.3 N 6 9 1015.6 - 0.0 - - - - - - -
30/10:00pm 19.6 NNW 5 9 1015.9 - 0.0 - - - - - - -
30/09:30pm 19.8 N 6 14 1015.8 - 0.0 - - - - - - -
30/09:00pm 20.0 N 7 12 1015.9 - 0.0 - - - - - - -
30/08:30pm 20.0 N 7 12 1016.0 - 0.0 - - - - - - -
30/08:00pm 20.0 N 7 11 1016.0 - 0.0 - - - - - - -
30/07:30pm 20.1 N 7 11 1015.9 - 0.0 - - - - - - -
30/07:00pm 20.2 N 7 13 1015.7 - 0.0 - - - - - - -
30/06:30pm 20.3 N 8 14 1015.4 - 0.0 - - - - - - -
30/06:00pm 20.5 N 8 14 1015.0 - 0.0 - - - - - - -
30/05:30pm 20.8 N 9 16 1014.9 - 0.0 - - - - - - -
30/05:00pm 21.4 N 9 16 1014.5 - 0.0 - - - - - - -
30/04:30pm 22.4 N 9 17 1014.5 - 0.0 - - - - - - -
30/04:00pm 22.8 N 9 16 1014.8 - 0.0 - - - - - - -
30/03:30pm 23.6 N 9 16 1014.8 - 0.0 - - - - - - -
30/03:00pm 24.1 N 8 17 1015.0 F 0.0 - - - - - - -
30/02:30pm 24.7 N 8 14 1015.4 - 0.0 - - - - - - -
30/02:00pm 24.9 N 8 14 1015.6 - 0.0 - - - - - - -
30/01:30pm 25.0 N 7 12 1015.8 - 0.0 - - - - - - -
30/01:00pm 25.5 N 7 14 1016.4 - 0.0 - - - - - - -
30/12:30pm 25.6 N 6 11 1016.8 - 0.0 - - - - - - -
30/12:00pm 24.6 N 6 12 1017.1 - 0.0 - - - - - - -
30/11:30am 24.1 NNE 5 9 1017.5 - 0.0 - - - - - - -
30/11:00am 23.8 NE 5 8 1017.9 - 0.0 - - - - - - -
30/10:30am 23.6 NNE 4 7 1018.4 - 0.0 - - - - - - -
30/10:00am 23.4 NNE 4 7 1018.9 - 0.0 - - - - - - -
30/09:30am 22.8 N 4 7 1019.2 - 0.0 - - - - - - -
30/09:00am 22.3 N 4 6 1019.3 F 0.0 Fine Clear 40 1 1.0 7 NE
30/08:30am 21.4 NW 4 6 1019.4 - 0.0 - - - - - - -
30/08:00am 20.0 NW 4 6 1019.3 - 0.0 - - - - - - -
30/07:30am 18.7 NNW 3 5 1019.0 - 0.0 - - - - - - -
30/07:00am 17.2 NNW 4 6 1019.0 - 0.0 - - - - - - -
30/06:30am 16.2 NNW 5 6 1018.7 - 0.0 - - - - - - -
30/06:00am 15.6 NNW 5 7 1018.4 - 0.0 - - - - - - -
30/05:30am 15.2 NNW 4 7 1018.2 - 0.0 - - - - - - -
30/05:00am 15.2 NNW 4 6 1017.8 - 0.0 - - - - - - -
30/04:30am 15.4 NNW 4 6 1017.5 - 0.0 - - - - - - -
30/04:00am 15.9 NNW 6 8 1017.4 - 0.0 - - - - - - -
30/03:30am 16.1 NNW 6 8 1017.3 - 0.0 - - - - - - -
30/03:00am 16.3 NNW 5 7 1017.2 - 0.0 - - - - - - -
30/02:30am 16.1 NNW 4 5 1017.5 - 0.0 - - - - - - -
30/02:00am 16.0 NNW 4 6 1017.5 - 0.0 - - - - - - -
30/01:30am 16.5 NW 4 6 1017.6 - 0.0 - - - - - - -
30/01:00am 16.9 NW 4 5 1017.8 - 0.0 - - - - - - -
30/12:30am 16.9 NW 3 5 1018.0 - 0.0 - - - - - - -
30/12:00am 17.0 NW 3 5 1017.9 - 0.0 - - - - - - -
 
Date/Time
EST
Temp

°C
Wind Pressure Rain
since 9am
mm
Weather Cloud Vis
km
Sea
Height
m
Swell
Dir
 
Speed
knots
Gust
knots
hPa Trend Height
m
Period
s
Dir
29/11:30pm 17.7 NNW 3 4 1018.2 - 0.0 - - - - - - -
29/11:00pm 18.0 NW 4 5 1018.3 - 0.0 - - - - - - -
29/10:30pm 18.5 NNW 6 9 1018.2 - 0.0 - - - - - - -
29/10:00pm 19.2 N 5 9 1018.1 - 0.0 - - - - - - -
29/09:30pm 19.2 N 5 9 1018.0 - 0.0 - - - - - - -
29/09:00pm 19.5 N 5 8 1017.8 - 0.0 - - - - - - -
29/08:30pm 19.5 N 5 9 1017.9 - 0.0 - - - - - - -
29/08:00pm 19.7 N 5 8 1017.8 - 0.0 - - - - - - -
29/07:30pm 19.9 N 6 8 1017.6 - 0.0 - - - - - - -
29/07:00pm 20.0 N 6 8 1017.3 - 0.0 - - - - - - -
29/06:30pm 20.1 N 6 10 1016.9 - 0.0 - - - - - - -
29/06:00pm 20.3 N 7 12 1016.5 - 0.0 - - - - - - -
29/05:30pm 20.7 N 9 13 1016.3 - 0.0 - - - - - - -
29/05:00pm 21.5 N 8 11 1016.0 - 0.0 - - - - - - -
29/04:30pm 22.4 N 8 14 1016.0 - 0.0 - - - - - - -
29/04:00pm 22.5 N 8 13 1016.1 - 0.0 - - - - - - -
29/03:30pm 22.9 N 7 13 1016.0 - 0.0 - - - - - - -
29/03:00pm 23.2 N 7 11 1016.0 F 0.0 Fine Clear 40 1 1.5 8 NE
29/02:30pm 23.1 NNE 7 11 1016.3 - 0.0 - - - - - - -
29/02:00pm 23.4 NNE 6 12 1016.4 - 0.0 - - - - - - -
29/01:30pm 24.0 NNE 7 13 1016.8 - 0.0 - - - - - - -
29/01:00pm 24.0 NNE 7 13 1017.2 - 0.0 - - - - - - -
29/12:30pm 23.8 NNE 6 9 1017.8 - 0.0 - - - - - - -
29/12:00pm 24.1 N 6 10 1018.1 - 0.0 - - - - - - -
29/11:30am 24.7 N 5 9 1018.4 - 0.0 - - - - - - -
29/11:00am 24.1 N 5 8 1018.8 - 0.0 - - - - - - -
29/10:30am 23.4 N 6 10 1019.3 - 0.0 - - - - - - -
29/10:00am 23.1 NNW 6 8 1019.7 - 0.0 - - - - - - -
29/09:30am 22.1 NW 7 10 1019.9 - 0.0 - - - - - - -
29/09:00am 21.2 NW 7 10 1020.1 F 0.0 Fine Clear 40 1 1.0 8 E
29/08:30am 19.3 NW 5 8 1020.4 - 0.0 - - - - - - -
29/08:00am 17.6 NNW 5 7 1020.6 - 0.0 - - - - - - -
29/07:30am 16.3 WNW 5 7 1020.9 - 0.0 - - - - - - -
29/07:00am 14.9 W 6 8 1020.9 - 0.0 - - - - - - -
29/06:30am 13.8 W 6 7 1020.7 - 0.0 - - - - - - -
29/06:00am 12.8 W 4 5 1020.4 - 0.0 - - - - - - -
29/05:30am 12.6 W 3 5 1020.1 - 0.0 - - - - - - -
29/05:00am 12.7 WSW 5 7 1019.9 - 0.0 - - - - - - -
29/04:30am 13.1 SW 6 8 1019.8 - 0.0 - - - - - - -
29/04:00am 13.5 WSW 4 6 1019.5 - 0.0 - - - - - - -
29/03:30am 14.1 WSW 6 8 1019.4 - 0.0 - - - - - - -
29/03:00am 14.5 WSW 7 8 1019.4 - 0.0 - - - - - - -
29/02:30am 14.8 WSW 6 7 1019.4 - 0.0 - - - - - - -
29/02:00am 15.0 W 6 7 1019.7 - 0.0 - - - - - - -
29/01:30am 14.9 W 5 6 1020.0 - 0.0 - - - - - - -
29/01:00am 14.9 W 6 7 1020.3 - 0.0 - - - - - - -
29/12:30am 15.0 W 6 8 1020.8 - 0.0 - - - - - - -
29/12:00am 15.3 W 5 7 1021.0 - 0.0 - - - - - - -
 
Date/Time
EST
Temp

°C
Wind Pressure Rain
since 9am
mm
Weather Cloud Vis
km
Sea
Height
m
Swell
Dir
 
Speed
knots
Gust
knots
hPa Trend Height
m
Period
s
Dir
28/11:30pm 15.2 W 5 6 1021.3 - 0.0 - - - - - - -
28/11:00pm 16.1 W 5 6 1021.5 - 0.0 - - - - - - -
28/10:30pm 17.5 N 3 5 1021.4 - 0.0 - - - - - - -
28/10:00pm 18.1 NNE 4 7 1021.2 - 0.0 - - - - - - -
28/09:30pm 18.3 NNE 5 7 1021.2 - 0.0 - - - - - - -
28/09:00pm 18.4 ENE 5 9 1021.2 - 0.0 - - - - - - -
28/08:30pm 18.5 ENE 5 8 1021.2 - 0.0 - - - - - - -
28/08:00pm 18.6 E 6 10 1021.1 - 0.0 - - - - - - -
28/07:30pm 18.7 E 6 9 1020.8 - 0.0 - - - - - - -
28/07:00pm 18.7 E 6 9 1020.4 - 0.0 - - - - - - -
28/06:30pm 18.6 E 6 9 1020.2 - 0.0 - - - - - - -
28/06:00pm 18.5 E 7 10 1020.0 - 0.0 - - - - - - -
28/05:30pm 18.7 E 6 9 1019.9 - 0.0 - - - - - - -
28/05:00pm 19.2 E 7 9 1019.9 - 0.0 - - - - - - -
28/04:30pm 19.6 E 7 10 1020.0 - 0.0 - - - - - - -
28/04:00pm 19.9 ESE 8 11 1019.9 - 0.0 - - - - - - -
28/03:30pm 20.2 ESE 9 12 1019.9 - 0.0 - - - - - - -
28/03:00pm 20.4 ESE 9 13 1020.0 R 0.0 Fine Mostly clear 50 2 1.0 8 SE
28/02:30pm 20.5 SE 12 14 1020.2 - 0.0 - - - - - - -
28/02:00pm 20.6 SE 12 16 1020.6 - 0.0 - - - - - - -
28/01:30pm 20.7 SE 12 15 1020.7 - 0.0 - - - - - - -
28/01:00pm 20.8 SE 13 16 1021.0 - 0.0 - - - - - - -
28/12:30pm 20.5 SE 13 16 1021.3 - 0.0 - - - - - - -
28/12:00pm 20.6 SE 13 15 1021.6 - 0.0 - - - - - - -
28/11:30am 20.8 SE 11 15 1021.9 - 0.0 - - - - - - -
28/11:00am 20.9 SE 12 15 1022.2 - 0.0 - - - - - - -
28/10:30am 20.5 SE 11 13 1022.4 - 0.0 - - - - - - -
28/10:00am 20.0 SE 10 14 1022.8 - 0.0 - - - - - - -
28/09:30am 20.3 SSE 8 11 1022.9 - 0.0 - - - - - - -
28/09:00am 19.7 SSE 5 8 1022.9 R 0.2 Fine Mostly clear 40 <0.5 1.0 8 SE
28/08:30am 18.9 SSW 6 7 1022.8 - 0.2 - - - - - - -
28/08:00am 17.9 SSW 5 10 1022.7 - 0.2 - - - - - - -
28/07:30am 16.6 SSW 7 9 1022.5 - 0.2 - - - - - - -
28/07:00am 16.0 SW 4 7 1022.3 - 0.2 - - - - - - -
28/06:30am 14.8 SW 5 8 1021.9 - 0.2 - - - - - - -
28/06:00am 14.2 WSW 5 7 1021.5 - 0.2 - - - - - - -
28/05:30am 14.3 SW 4 6 1021.4 - 0.2 - - - - - - -
28/05:00am 14.6 SW 5 7 1021.4 - 0.2 - - - - - - -
28/04:30am 15.1 SSW 5 7 1021.2 - 0.2 - - - - - - -

Other Formats:

Comma delimited format used in spreadsheet applications
http://www.bom.gov.au/fwo/IDN60701/IDN60701.94589.axf

JavaScript Object Notation format (JSON) in row-major order
http://www.bom.gov.au/fwo/IDN60701/IDN60701.94589.json